[[{"header":{"parameterUnit":"m.s-1","parameterCategory":1,"la1":30.2991,"la2":30.254,"lo1":-89.0895,"lo2":-89.0444,"dy":0.0017,"dx":0.0017,"nx":28,"ny":28,"refTime":"2024-05-03T09:00:00:Z","depth":0,"parameterNumber":2,"parameterNumberName":"U-component_of_WINDS"},"data":[0,0,0,0,0,0,0,0,0,0,0,0,0,0,0,0,0,0,0,0,0,0,0,0,0,0,0,0,0,0,0,0,0,0,0,0,0,0,0,0,0,0,0,0,0,0,0,0,0,0,0,0,0,0,0,0,0,0,-0.8711,-0.8711,0,-0.8686,-0.8685,-0.8685,-0.8656,-0.8655,-0.8655,-0.8654,-0.8629,-0.8629,-0.8629,0,0,0,0,0,0,0,0,0,0,0,0,0,-0.8736,-0.8736,-0.8711,-0.8711,-0.8711,-0.8686,-0.8685,-0.8685,-0.8656,-0.8655,-0.8654,-0.8654,-0.8629,-0.8629,-0.8629,0,0,0,0,0,0,0,0,0,0,0,0,0,-0.8719,-0.8736,-0.8711,-0.8693,-0.8691,-0.8686,-0.8685,-0.8685,-0.8656,-0.8655,-0.8654,-0.8654,-0.8629,-0.8629,-0.8629,-0.864,0,0,-0.8627,-0.8627,0,0,0,0,0,0,0,0,-0.872,-0.8719,-0.8696,-0.8694,-0.8692,-0.8673,-0.8685,-0.867,-0.8656,-0.8669,-0.8654,-0.8653,-0.8644,-0.8643,-0.8639,-0.8639,-0.8637,-0.8627,-0.8627,-0.8627,-0.8627,0,0,0,0,0,0,0,-0.8722,-0.872,-0.8701,-0.8696,-0.8693,-0.8686,-0.8683,-0.8682,-0.8661,-0.8668,-0.8666,-0.8663,-0.8643,-0.864,-0.8639,-0.8637,-0.8627,-0.8627,-0.8627,-0.8627,-0.8645,-0.8645,0,0,0,0,0,0,-0.8725,-0.8721,-0.8702,-0.87,-0.8705,-0.8687,-0.8683,-0.868,-0.8661,-0.8657,-0.8664,-0.8662,-0.8641,-0.8639,-0.8638,-0.865,-0.8627,-0.8627,-0.8626,-0.8644,-0.8645,-0.8646,0,0,0,0,0,0,-0.8726,-0.8724,-0.8703,-0.871,-0.8707,-0.8687,-0.8683,-0.868,-0.8676,-0.8658,-0.8654,-0.8664,-0.864,-0.8638,-0.8639,-0.8648,-0.8626,-0.8626,-0.8643,-0.8644,-0.8645,-0.8674,0,0,0,0,0,0,-0.8727,-0.8724,-0.8728,-0.871,-0.8706,-0.8705,-0.8684,-0.868,-0.8676,-0.8673,-0.8657,-0.8654,-0.864,-0.864,-0.8639,-0.8647,-0.8626,-0.8642,-0.8644,-0.8645,-0.8672,-0.8675,-0.8679,0,0,0,0,0,-0.8728,-0.8737,-0.8728,-0.8726,-0.8711,-0.8705,-0.8703,-0.8687,-0.8676,-0.868,-0.8668,-0.8654,-0.8648,-0.8641,-0.8639,-0.8647,-0.8642,-0.8643,-0.8645,-0.867,-0.8675,-0.8679,0,0,0,0,0,0,-0.8757,-0.8735,-0.8724,-0.8728,-0.8719,-0.87,-0.8705,-0.8692,-0.8686,-0.8683,-0.8663,-0.866,-0.8664,-0.8656,-0.8648,-0.8657,-0.8643,-0.8644,-0.8662,-0.8667,-0.867,-0.8672,-0.8626,0,0,0,0,0,-0.8764,-0.8761,-0.8742,-0.8747,-0.8743,-0.8725,-0.8722,-0.871,-0.87,-0.8696,-0.8684,-0.8675,-0.867,-0.8668,-0.8663,-0.8671,-0.8667,-0.8676,-0.8679,-0.8682,-0.8683,-0.8687,-0.8691,-0.8651,-0.8651,-0.8651,0,0,-0.8778,-0.8765,-0.8765,-0.8753,-0.8744,-0.8742,-0.8722,-0.872,-0.8719,-0.8695,-0.8696,-0.8687,-0.8676,-0.868,-0.8681,-0.8673,-0.8694,-0.8684,-0.8687,-0.8686,-0.8689,-0.8693,-0.8696,-0.8652,-0.8652,-0.8651,0,0,-0.8803,-0.8793,-0.8796,-0.8788,-0.8775,-0.8763,-0.8764,-0.8747,-0.874,-0.874,-0.8723,-0.8721,-0.8714,-0.8707,-0.8702,-0.8725,-0.8712,-0.8724,-0.8742,-0.8746,-0.8749,-0.8752,-0.876,-0.8763,-0.8726,-0.8726,-0.8726,0,-0.8822,-0.8818,-0.88,-0.8799,-0.8795,-0.8773,-0.8777,-0.877,-0.8756,-0.8754,-0.8745,-0.8736,-0.8727,-0.873,-0.8735,-0.8732,-0.8733,-0.8726,-0.875,-0.8752,-0.8755,-0.8762,-0.8765,-0.8727,-0.8727,-0.8727,-0.8727,0,-0.8842,-0.884,-0.8844,-0.8831,-0.8827,-0.8829,-0.8811,-0.8809,-0.8798,-0.8787,-0.8788,-0.8776,-0.8769,-0.8768,-0.8757,-0.877,-0.8765,-0.8754,-0.8738,-0.876,-0.8767,-0.877,-0.873,-0.8729,-0.8728,-0.8728,0,0,-0.8884,-0.8861,-0.8863,-0.8857,-0.8842,-0.884,-0.8841,-0.8833,-0.8832,-0.8824,-0.8824,-0.8819,-0.8809,-0.8803,-0.8791,-0.8795,-0.8814,-0.8783,-0.8782,-0.8789,-0.8827,-0.8835,-0.8839,-0.8805,-0.8806,-0.8806,-0.8828,0,-0.8906,-0.8906,-0.889,-0.8894,-0.8892,-0.8872,-0.8873,-0.8864,-0.8854,-0.8851,-0.884,-0.8837,-0.8823,-0.882,-0.8822,-0.8811,-0.8821,-0.8809,-0.8806,-0.8806,-0.8809,-0.8843,-0.8852,-0.8873,-0.883,-0.8831,-0.8831,0,-0.8931,-0.8924,-0.8928,-0.8913,-0.8911,-0.8912,-0.8904,-0.8902,-0.8891,-0.8884,-0.8878,-0.8865,-0.8865,-0.8851,-0.8852,-0.8844,-0.8842,-0.8836,-0.8836,-0.8835,-0.882,-0.8842,-0.8879,-0.8882,-0.8835,-0.8835,-0.8834,0,-0.8961,-0.8953,-0.8954,-0.895,-0.8932,-0.8933,-0.8926,-0.8915,-0.8911,-0.8904,-0.8902,-0.8896,-0.8892,-0.8888,-0.8873,-0.8864,-0.8876,-0.886,-0.887,-0.887,-0.8873,-0.8873,-0.891,-0.8872,-0.8872,-0.8872,-0.8872,0,-0.8987,-0.8991,-0.8968,-0.8969,-0.8972,-0.8954,-0.8958,-0.8949,-0.8939,-0.8938,-0.8921,-0.8921,-0.8901,-0.8899,-0.8887,-0.889,-0.8889,-0.8883,-0.888,-0.8884,-0.8885,-0.8882,-0.888,-0.8872,-0.8872,-0.8872,-0.8872,0,-0.9022,-0.9006,-0.9006,-0.8989,-0.8985,-0.8989,-0.8974,-0.8975,-0.8964,-0.8963,-0.8962,-0.8945,-0.8941,-0.8926,-0.8919,-0.8911,-0.8918,-0.8912,-0.8921,-0.8919,-0.893,-0.8929,-0.8966,-0.897,-0.893,-0.893,-0.893,0,-0.9039,-0.9041,-0.9024,-0.9022,-0.9016,-0.9013,-0.9009,-0.8992,-0.8989,-0.8977,-0.8979,-0.8974,-0.8969,-0.8965,-0.8952,-0.8947,-0.894,-0.8954,-0.8939,-0.8944,-0.894,-0.894,-0.8941,-0.8957,-0.8957,-0.8958,-0.8958,0,-0.9072,-0.9064,-0.9059,-0.9052,-0.9048,-0.9042,-0.9034,-0.9034,-0.9014,-0.9012,-0.9008,-0.9004,-0.8997,-0.8992,-0.8985,-0.8978,-0.8965,-0.8963,-0.8964,-0.8969,-0.8974,-0.8972,-0.8929,-0.8962,-0.8961,-0.8961,-0.8961,-0.8961,-0.9098,-0.91,-0.9088,-0.9083,-0.9076,-0.9069,-0.9069,-0.9058,-0.9054,-0.9046,-0.9036,-0.9034,-0.9023,-0.9012,-0.9006,-0.9004,-0.8997,-0.9,-0.9,-0.9001,-0.9004,-0.8975,-0.9003,-0.9003,-0.9003,-0.9002,-0.9002,0,-0.913,-0.9122,-0.9118,-0.9108,-0.9104,-0.9092,-0.9083,-0.9081,-0.9079,-0.907,-0.9066,-0.9061,-0.9057,-0.9044,-0.9038,-0.9039,-0.9033,-0.9038,-0.9038,-0.9037,-0.901,-0.9009,-0.9043,-0.9043,-0.9043,-0.9043,-0.9043,-0.9043,-0.9147,-0.9148,-0.9139,-0.9136,-0.9128,-0.9125,-0.9121,-0.9115,-0.9108,-0.9103,-0.91,-0.9091,-0.9081,-0.9074,-0.907,-0.9066,-0.9065,-0.9072,-0.9067,-0.9042,-0.9039,-0.9035,-0.9034,-0.9072,-0.9072,-0.9093,-0.9093,-0.9093]},{"header":{"parameterUnit":"m.s-1","parameterCategory":1,"la1":30.2991,"la2":30.254,"lo1":-89.0895,"lo2":-89.0444,"dy":0.0017,"dx":0.0017,"nx":28,"ny":28,"refTime":"2024-05-03T09:00:00:Z","depth":0,"parameterNumber":3,"parameterNumberName":"V-component_of_WINDS"},"data":[0,0,0,0,0,0,0,0,0,0,0,0,0,0,0,0,0,0,0,0,0,0,0,0,0,0,0,0,0,0,0,0,0,0,0,0,0,0,0,0,0,0,0,0,0,0,0,0,0,0,0,0,0,0,0,0,0,0,2.3066,2.3066,0,2.3063,2.3063,2.3063,2.3027,2.3026,2.3025,2.3024,2.3022,2.3022,2.3023,0,0,0,0,0,0,0,0,0,0,0,0,0,2.304,2.3041,2.3066,2.3066,2.3066,2.3063,2.3063,2.3063,2.3027,2.3026,2.3025,2.3024,2.3021,2.3022,2.3023,0,0,0,0,0,0,0,0,0,0,0,0,0,2.3046,2.3041,2.3066,2.3047,2.3046,2.3063,2.3063,2.3063,2.3027,2.3026,2.3024,2.3023,2.3021,2.3022,2.3023,2.3058,0,0,2.3027,2.3028,0,0,0,0,0,0,0,0,2.3045,2.3047,2.305,2.3049,2.3047,2.3044,2.3053,2.3062,2.3028,2.3034,2.3024,2.3022,2.303,2.3031,2.3033,2.3058,2.3058,2.3027,2.3028,2.3028,2.3029,0,0,0,0,0,0,0,2.3045,2.3046,2.3065,2.305,2.3048,2.3039,2.3039,2.3054,2.304,2.3034,2.3031,2.3031,2.3029,2.3032,2.3033,2.3058,2.3027,2.3028,2.3029,2.3029,2.3112,2.3113,0,0,0,0,0,0,2.3047,2.3046,2.3065,2.3065,2.3043,2.3041,2.304,2.3046,2.304,2.3037,2.3032,2.3029,2.3031,2.3031,2.3033,2.3073,2.3028,2.303,2.303,2.311,2.3112,2.3114,0,0,0,0,0,0,2.3047,2.3049,2.3065,2.3055,2.3056,2.3043,2.305,2.3047,2.305,2.3039,2.3036,2.3038,2.303,2.3031,2.3052,2.3072,2.303,2.3031,2.3109,2.3111,2.3113,2.3154,0,0,0,0,0,0,2.3046,2.3049,2.3062,2.3055,2.3057,2.3085,2.3051,2.3048,2.3052,2.3048,2.3043,2.3041,2.3029,2.3051,2.3053,2.3073,2.3032,2.3107,2.311,2.3112,2.3151,2.3158,2.3163,0,0,0,0,0,2.3045,2.3074,2.3063,2.3066,2.3073,2.3086,2.3087,2.3072,2.3054,2.3067,2.306,2.3041,2.307,2.3053,2.3056,2.3077,2.3105,2.3109,2.3112,2.3148,2.3156,2.3163,0,0,0,0,0,0,2.3084,2.3073,2.3061,2.3088,2.3088,2.308,2.3096,2.3081,2.3086,2.3082,2.3063,2.3062,2.3087,2.3084,2.3065,2.311,2.3084,2.3088,2.3111,2.3119,2.3125,2.3125,2.3033,0,0,0,0,0,2.3096,2.3107,2.3097,2.3122,2.3123,2.311,2.3115,2.3103,2.3102,2.3102,2.3096,2.3097,2.3106,2.3112,2.3119,2.315,2.3149,2.3166,2.3172,2.3177,2.3181,2.3197,2.3205,2.3125,2.3125,2.3125,0,0,2.312,2.3115,2.3124,2.313,2.3129,2.3141,2.311,2.3124,2.3133,2.3104,2.3124,2.312,2.3119,2.3145,2.3157,2.3144,2.3203,2.3181,2.3186,2.3187,2.3201,2.3209,2.3216,2.3127,2.3126,2.3126,0,0,2.3171,2.3169,2.3189,2.3189,2.3187,2.3178,2.3183,2.3177,2.3173,2.3192,2.3171,2.3181,2.3197,2.3197,2.3199,2.325,2.3233,2.3253,2.3285,2.3301,2.3307,2.3313,2.3331,2.3338,2.3257,2.3257,2.3257,0,2.3201,2.3219,2.3202,2.3218,2.3221,2.3195,2.3216,2.3216,2.3217,2.322,2.3205,2.3225,2.3222,2.3248,2.326,2.3263,2.3268,2.3254,2.3308,2.3313,2.3318,2.3335,2.3342,2.3259,2.3259,2.3259,2.3259,0,2.3257,2.3269,2.3286,2.3288,2.3293,2.3311,2.3297,2.3304,2.3292,2.3284,2.3304,2.33,2.3307,2.3312,2.33,2.3336,2.3328,2.3311,2.3285,2.3328,2.3344,2.335,2.3263,2.3262,2.3261,2.3261,0,0,2.3332,2.3324,2.333,2.333,2.3327,2.3336,2.3353,2.3359,2.3366,2.3367,2.3381,2.3395,2.3379,2.3381,2.3369,2.3383,2.3424,2.3364,2.3364,2.3375,2.3463,2.3476,2.3484,2.3413,2.3414,2.3415,2.3463,0,2.3381,2.341,2.3395,2.3425,2.3436,2.3412,2.3427,2.3426,2.342,2.3428,2.3421,2.3431,2.3409,2.341,2.3423,2.3416,2.3441,2.3412,2.3425,2.3426,2.3427,2.3492,2.3506,2.3553,2.3469,2.347,2.3471,0,2.3442,2.3446,2.3478,2.3472,2.3476,2.3489,2.3494,2.3502,2.3501,2.3495,2.3498,2.3482,2.3499,2.3473,2.3495,2.3476,2.348,2.3478,2.3479,2.348,2.3451,2.3495,2.3567,2.3574,2.3481,2.348,2.3479,0,2.3494,2.3507,2.3528,2.3529,2.3522,2.3532,2.353,2.3527,2.3532,2.3535,2.3538,2.3544,2.3547,2.3552,2.3538,2.3521,2.3563,2.3536,2.3558,2.3559,2.3569,2.3568,2.3642,2.3571,2.3571,2.3571,2.3571,0,2.3551,2.3571,2.3551,2.3564,2.3586,2.3568,2.3591,2.3586,2.3583,2.3595,2.3574,2.3585,2.3567,2.3576,2.3566,2.3586,2.3587,2.3583,2.358,2.3585,2.3586,2.3588,2.3585,2.3573,2.3572,2.3572,2.3572,0,2.3613,2.36,2.3621,2.3613,2.3611,2.3628,2.3621,2.3632,2.3624,2.3639,2.3641,2.3628,2.3638,2.3625,2.3634,2.3627,2.3654,2.3647,2.3655,2.3653,2.3676,2.3674,2.3754,2.3764,2.3687,2.3688,2.3688,0,2.365,2.3665,2.3658,2.3664,2.3663,2.3673,2.3677,2.366,2.3666,2.3665,2.3677,2.3685,2.369,2.3707,2.3699,2.3706,2.3698,2.3725,2.3699,2.3703,2.3698,2.3698,2.3699,2.3731,2.3732,2.3733,2.3733,0,2.3717,2.371,2.3717,2.3721,2.3727,2.373,2.3732,2.3738,2.372,2.3727,2.3737,2.3741,2.375,2.3759,2.3763,2.376,2.3744,2.3742,2.3747,2.3753,2.3757,2.3755,2.367,2.374,2.3739,2.3739,2.3739,2.3738,2.3767,2.3779,2.3777,2.3785,2.3784,2.3786,2.3796,2.3789,2.3797,2.3803,2.3792,2.3805,2.3803,2.3807,2.3806,2.3816,2.3804,2.3812,2.3814,2.3816,2.382,2.3755,2.3816,2.3816,2.3816,2.3816,2.3816,0,2.3833,2.383,2.3838,2.3841,2.3847,2.3831,2.3832,2.3838,2.3849,2.3849,2.3855,2.3866,2.3874,2.3866,2.3872,2.3881,2.3874,2.3884,2.3883,2.3883,2.383,2.3825,2.3889,2.3889,2.3889,2.3889,2.3889,2.3889,2.3869,2.3888,2.3881,2.39,2.3896,2.3908,2.391,2.3912,2.3911,2.3924,2.3931,2.3925,2.3922,2.3928,2.3934,2.3932,2.3935,2.3948,2.3942,2.3894,2.3886,2.388,2.3874,2.3948,2.3948,2.3994,2.3995,2.3995]}]]